When you browse on this site, cookies collect data to enhance your experience and personalize the content and advertising you see.
Visit our Privacy Policy to learn more. By continuing to use the site, you agree to this use of cookies and data.
  • In Austria
  • List of Countries
  • For 7 days
  • Water Temperature
  • Weather Map
  • News
  • Weather Widgets
  • user-avatar
    Login

    Hourly Weather Hlybochok

    Today, 21 January, Tuesday

    Time Temperature Precipitation Wind Pressure Humidity
    00:00 -4°C° 0 mm 5 mps 742 mmHg 100%
    01:00 -4°C° 0 mm 5 mps 741 mmHg 100%
    02:00 -5°C° 0 mm 5 mps 741 mmHg 100%
    03:00 -5°C° 0 mm 5 mps 741 mmHg 100%
    04:00 -5°C° 0 mm 5 mps 740 mmHg 100%
    05:00 -5°C° 0 mm 5 mps 740 mmHg 100%
    06:00 -5°C° 0 mm 5 mps 740 mmHg 100%
    07:00 -4°C° 0 mm 4 mps 739 mmHg 100%
    08:00 -5°C° 0 mm 4 mps 739 mmHg 100%
    09:00 -4°C° 0 mm 4 mps 739 mmHg 99%
    10:00 -4°C° 0 mm 5 mps 739 mmHg 93%
    11:00 -2°C° 0 mm 5 mps 739 mmHg 85%
    12:00 -1°C° 0 mm 5 mps 739 mmHg 80%
    13:00 -1°C° 0 mm 6 mps 738 mmHg 76%
    14:00 +2°C° 0 mm 6 mps 738 mmHg 77%
    15:00 +2°C° 0 mm 6 mps 738 mmHg 80%
    16:00 +2°C° 0 mm 6 mps 737 mmHg 76%
    17:00 +1°C° 0 mm 5 mps 736 mmHg 80%
    18:00 0°C° 0 mm 5 mps 735 mmHg 82%
    19:00 0°C° 0 mm 5 mps 735 mmHg 79%
    20:00 0°C° 0 mm 5 mps 735 mmHg 78%
    21:00 -1°C° 0 mm 5 mps 734 mmHg 79%
    22:00 -1°C° 0 mm 5 mps 734 mmHg 78%
    23:00 -1°C° 0 mm 5 mps 733 mmHg 78%

    Tomorrow, 22 January, Wednesday

    Time Temperature Precipitation Wind Pressure Humidity
    00:00 -1°C° 0 mm 5 mps 733 mmHg 79%
    01:00 -1°C° 0 mm 4 mps 733 mmHg 81%
    02:00 -1°C° 0 mm 4 mps 733 mmHg 82%
    03:00 -1°C° 0 mm 4 mps 732 mmHg 83%
    04:00 0°C° 0 mm 3 mps 731 mmHg 82%
    05:00 0°C° 0 mm 3 mps 731 mmHg 81%
    06:00 0°C° 0 mm 3 mps 730 mmHg 80%
    07:00 0°C° 0 mm 3 mps 730 mmHg 79%
    08:00 0°C° 0 mm 3 mps 729 mmHg 79%
    09:00 0°C° 0 mm 3 mps 729 mmHg 81%
    10:00 +1°C° 0 mm 4 mps 728 mmHg 81%
    11:00 +3°C° 0 mm 5 mps 728 mmHg 76%
    12:00 +4°C° 0 mm 6 mps 728 mmHg 74%
    13:00 +4°C° 0 mm 7 mps 728 mmHg 73%
    14:00 +4°C° 0 mm 7 mps 727 mmHg 69%
    15:00 +4°C° 0 mm 6 mps 727 mmHg 72%
    16:00 +3°C° 0 mm 7 mps 727 mmHg 80%
    17:00 0°C° 0.1 mm 7 mps 726 mmHg 96%
    18:00 -1°C° 0.6 mm 8 mps 727 mmHg 96%
    19:00 -3°C° 0 mm 9 mps 727 mmHg 92%
    20:00 -4°C° 0 mm 9 mps 727 mmHg 93%
    21:00 -5°C° 0 mm 9 mps 727 mmHg 93%
    22:00 -5°C° 0 mm 9 mps 727 mmHg 93%
    23:00 -5°C° 0 mm 9 mps 728 mmHg 93%

    Day after tomorrow, 23 January, Thursday

    Time Temperature Precipitation Wind Pressure Humidity
    00:00 -5°C° 0 mm 8 mps 728 mmHg 94%
    01:00 -5°C° 0.1 mm 8 mps 728 mmHg 100%
    02:00 -5°C° 0.1 mm 8 mps 729 mmHg 100%
    03:00 -5°C° 0.1 mm 8 mps 729 mmHg 100%
    04:00 -4°C° 0.1 mm 7 mps 729 mmHg 100%
    05:00 -6°C° 0 mm 8 mps 729 mmHg 100%
    06:00 -6°C° 0.1 mm 7 mps 729 mmHg 100%
    07:00 -6°C° 0.1 mm 7 mps 730 mmHg 100%
    08:00 -6°C° 0.1 mm 7 mps 731 mmHg 100%
    09:00 -6°C° 0.1 mm 7 mps 731 mmHg 99%
    10:00 -6°C° 0.1 mm 7 mps 732 mmHg 99%
    11:00 -6°C° 0 mm 7 mps 732 mmHg 99%
    12:00 -4°C° 0 mm 7 mps 733 mmHg 98%
    13:00 -4°C° 0 mm 7 mps 733 mmHg 96%
    14:00 -5°C° 0 mm 8 mps 733 mmHg 95%
    15:00 -5°C° 0 mm 8 mps 734 mmHg 92%
    16:00 -4°C° 0 mm 7 mps 734 mmHg 93%
    17:00 -4°C° 0 mm 7 mps 734 mmHg 94%
    18:00 -4°C° 0 mm 6 mps 734 mmHg 96%
    19:00 -5°C° 0 mm 6 mps 734 mmHg 96%
    20:00 -5°C° 0 mm 6 mps 735 mmHg 98%
    21:00 -5°C° 0 mm 5 mps 735 mmHg 98%
    22:00 -5°C° 0 mm 5 mps 735 mmHg 98%
    23:00 -4°C° 0 mm 4 mps 735 mmHg 98%

    24 January, Friday

    Time Temperature Precipitation Wind Pressure Humidity
    00:00 -4°C° 0 mm 4 mps 735 mmHg 99%
    01:00 -4°C° 0 mm 4 mps 735 mmHg 100%
    02:00 -4°C° 0 mm 3 mps 735 mmHg 100%
    03:00 -5°C° 0 mm 3 mps 735 mmHg 100%
    04:00 -4°C° 0 mm 2 mps 734 mmHg 100%
    05:00 -1°C° 0 mm 1 mps 734 mmHg 99%
    06:00 -1°C° 0 mm 1 mps 734 mmHg 99%
    07:00 -2°C° 0 mm 1 mps 734 mmHg 98%
    08:00 -2°C° 0 mm 1 mps 734 mmHg 94%
    09:00 -4°C° 0 mm 2 mps 733 mmHg 93%
    10:00 -3°C° 0 mm 2 mps 733 mmHg 82%
    11:00 -1°C° 0 mm 2 mps 733 mmHg 70%
    12:00 +2°C° 0 mm 1 mps 733 mmHg 74%
    13:00 +3°C° 0 mm 0 mps 732 mmHg 77%
    14:00 +4°C° 0 mm 1 mps 732 mmHg 76%

    25 January, Saturday

    Time Temperature Precipitation Wind Pressure Humidity

    26 January, Sunday

    Time Temperature Precipitation Wind Pressure Humidity
    Show more